Monticello, NY

6:26 AM EDT on March 24, 2017 (GMT -0400)
Sullivan County International

Weather History for KMSV - August, 2013

Change the Weather History Date:

Thursday, August 22, 2013

  Actual Average Record
Temperature  
Mean Temperature 71 °F -  
Max Temperature 82 °F 74 °F 84 °F (2003)
Min Temperature 60 °F 55 °F 44 °F (2004)
Cooling Degree Days 6    
Growing Degree Days 21 (Base 50)    
Moisture  
Dew Point 60 °F    
Average Humidity 71    
Maximum Humidity 88    
Minimum Humidity 51    
Precipitation  
Precipitation 0.00 in - - ()
Sea Level Pressure  
Sea Level Pressure 30.03 in    
Wind  
Wind Speed 3 mph (WSW)    
Max Wind Speed 15 mph    
Max Gust Speed 22 mph    
Visibility 7 miles    
Events Thunderstorm    
Averages and records for this station are not official NWS values.
T = Trace of Precipitation, MM = Missing Value Source: NWS Daily Summary

Daily Weather History Graph

Daily Weather History Graph

Search for Another Location

Airport or City:

Trip Planner

Search our weather history database for the weather conditions in past years. The results will help you decide how hot, cold, wet, or windy it might be!

Date:

Astronomy

Aug. 22, 2013 Rise Set
Actual Time 6:15 AM EDT 7:48 PM EDT
Civil Twilight 5:45 AM EDT 8:17 PM EDT
Nautical Twilight 5:10 AM EDT 8:52 PM EDT
Astronomical Twilight 4:32 AM EDT 9:30 PM EDT
Moon 8:27 PM EDT (8/22) 8:03 AM EDT (8/22)
Length of Visible Light 14h 31m
Length of Day
13h 33m
Waning Gibbous, 97% of the Moon is Illuminated
Aug 22
Waning Gibbous
Aug 28
Last Quarter
Sep 5
New
Sep 12
First Quarter
Sep 19
Full

Hourly Weather History & Observations

Time (EDT) Temp. Heat Index Dew Point Humidity Pressure Visibility Wind Dir Wind Speed Gust Speed Precip Events Conditions
12:15 AM 62.6 °F - 57.2 °F 82% 30.13 in 5.0 mi Calm Calm - N/A   Clear
12:35 AM 62.6 °F - 57.2 °F 82% 30.12 in 5.0 mi Calm Calm - N/A   Clear
12:55 AM 62.6 °F - 57.2 °F 82% 30.13 in 5.0 mi North 3.5 mph - N/A   Clear
1:15 AM 62.6 °F - 57.2 °F 82% 30.13 in 5.0 mi Calm Calm - N/A   Clear
1:35 AM 62.6 °F - 57.2 °F 82% 30.13 in 4.0 mi NE 3.5 mph - N/A   Clear
1:55 AM 62.6 °F - 57.2 °F 82% 30.13 in 5.0 mi SSE 3.5 mph - N/A   Clear
2:15 AM 62.6 °F - 57.2 °F 82% 30.13 in 5.0 mi Calm Calm - N/A   Clear
2:35 AM 62.6 °F - 57.2 °F 82% 30.13 in 5.0 mi Calm Calm - N/A   Scattered Clouds
2:55 AM 62.6 °F - 57.2 °F 82% 30.12 in 4.0 mi Calm Calm - N/A   Scattered Clouds
3:15 AM 62.6 °F - 57.2 °F 82% 30.12 in 5.0 mi Calm Calm - N/A   Partly Cloudy
3:35 AM 62.6 °F - 57.2 °F 82% 30.11 in 4.0 mi North 3.5 mph - N/A   Clear
3:55 AM 60.8 °F - 57.2 °F 88% 30.11 in 3.0 mi Calm Calm - N/A   Clear
4:15 AM 62.6 °F - 57.2 °F 82% 30.10 in 3.0 mi Calm Calm - N/A   Scattered Clouds
4:35 AM 60.8 °F - 55.4 °F 82% 30.09 in 4.0 mi Calm Calm - N/A   Partly Cloudy
4:55 AM 60.8 °F - 57.2 °F 88% 30.08 in 3.0 mi Calm Calm - N/A   Clear
5:15 AM 62.6 °F - 55.4 °F 77% 30.08 in 4.0 mi Calm Calm - N/A   Clear
5:35 AM 60.8 °F - 55.4 °F 82% 30.08 in 3.0 mi Calm Calm - N/A   Clear
5:55 AM 60.8 °F - 55.4 °F 82% 30.07 in 2.5 mi Calm Calm - N/A   Clear
6:15 AM 60.8 °F - 57.2 °F 88% 30.08 in 2.5 mi Calm Calm - N/A   Clear
6:35 AM 60.8 °F - 57.2 °F 88% 30.08 in 2.0 mi Calm Calm - N/A   Clear
6:55 AM 62.6 °F - 57.2 °F 82% 30.08 in 2.5 mi Calm Calm - N/A   Clear
7:15 AM 62.6 °F - 57.2 °F 82% 30.08 in 2.0 mi North 3.5 mph - N/A   Clear
7:35 AM 62.6 °F - 57.2 °F 82% 30.08 in 2.0 mi Calm Calm - N/A   Clear
7:55 AM 62.6 °F - 57.2 °F 82% 30.08 in 2.5 mi Calm Calm - N/A   Clear
8:15 AM 64.4 °F - 60.8 °F 88% 30.08 in 3.0 mi Calm Calm - N/A   Partly Cloudy
8:35 AM 64.4 °F - 60.8 °F 88% 30.08 in 3.0 mi SSE 3.5 mph - N/A   Scattered Clouds
8:55 AM 66.2 °F - 60.8 °F 83% 30.08 in 5.0 mi Calm Calm - N/A   Partly Cloudy
9:15 AM 69.8 °F - 62.6 °F 78% 30.08 in 9.0 mi NW 3.5 mph - N/A   Clear
9:35 AM 71.6 °F - 62.6 °F 73% 30.08 in 10.0 mi West 3.5 mph - N/A   Clear
9:55 AM 73.4 °F - 62.6 °F 69% 30.07 in 10.0 mi West 6.9 mph - N/A   Clear
10:15 AM 73.4 °F - 62.6 °F 69% 30.07 in 10.0 mi WSW 4.6 mph - N/A   Clear
10:35 AM 75.2 °F - 62.6 °F 65% 30.08 in 10.0 mi WSW 5.8 mph - N/A   Partly Cloudy
10:55 AM 75.2 °F - 62.6 °F 65% 30.08 in 10.0 mi Calm Calm - N/A   Scattered Clouds
11:15 AM 75.2 °F - 62.6 °F 65% 30.07 in 10.0 mi NW 4.6 mph - N/A   Partly Cloudy
11:35 AM 75.2 °F - 62.6 °F 65% 30.06 in 10.0 mi SW 6.9 mph - N/A   Partly Cloudy
11:55 AM 75.2 °F - 60.8 °F 61% 30.06 in 10.0 mi SW 4.6 mph - N/A   Partly Cloudy
12:15 PM 78.8 °F - 64.4 °F 61% 30.05 in 10.0 mi WSW 6.9 mph - N/A   Partly Cloudy
12:35 PM 78.8 °F - 64.4 °F 61% 30.05 in 10.0 mi SW 4.6 mph - N/A   Partly Cloudy
12:55 PM 80.6 °F 82.3 °F 64.4 °F 58% 30.04 in 10.0 mi WSW 6.9 mph - N/A   Scattered Clouds
1:15 PM 80.6 °F 81.8 °F 62.6 °F 54% 30.02 in 10.0 mi SW 8.1 mph - N/A   Scattered Clouds
1:35 PM 80.6 °F 81.8 °F 62.6 °F 54% 30.00 in 10.0 mi SSW 8.1 mph - N/A   Partly Cloudy
1:55 PM 82.4 °F 83.4 °F 62.6 °F 51% 30.00 in 10.0 mi SSW 6.9 mph - N/A   Partly Cloudy
2:15 PM 80.6 °F 81.5 °F 60.8 °F 51% 30.00 in 10.0 mi SSW 6.9 mph - N/A   Scattered Clouds
2:35 PM 82.4 °F 83.4 °F 62.6 °F 51% 29.99 in 10.0 mi West 5.8 mph - N/A   Scattered Clouds
2:55 PM 80.6 °F 81.8 °F 62.6 °F 54% 29.99 in 10.0 mi West 5.8 mph - N/A   Scattered Clouds
3:15 PM 80.6 °F 81.8 °F 62.6 °F 54% 29.98 in 10.0 mi Calm Calm - N/A   Scattered Clouds
3:35 PM 82.4 °F 83.4 °F 62.6 °F 51% 29.97 in 10.0 mi West 6.9 mph - N/A   Scattered Clouds
3:55 PM 80.6 °F 81.5 °F 60.8 °F 51% 29.96 in 10.0 mi WSW 5.8 mph - N/A   Clear
4:15 PM 80.6 °F 81.8 °F 62.6 °F 54% 29.95 in 10.0 mi SW 5.8 mph - N/A   Partly Cloudy
4:35 PM 80.6 °F 81.8 °F 62.6 °F 54% 29.94 in 10.0 mi SW 5.8 mph - N/A   Scattered Clouds
4:55 PM 80.6 °F 81.8 °F 62.6 °F 54% 29.95 in 10.0 mi SSW 8.1 mph - N/A   Scattered Clouds
5:15 PM 80.6 °F 81.8 °F 62.6 °F 54% 29.94 in 10.0 mi WSW 8.1 mph - N/A   Mostly Cloudy
5:35 PM 80.6 °F 81.8 °F 62.6 °F 54% 29.94 in 10.0 mi SW 8.1 mph - N/A   Clear
5:55 PM 78.8 °F - 62.6 °F 57% 29.95 in 10.0 mi WSW 4.6 mph - N/A   Clear
6:15 PM 78.8 °F - 62.6 °F 57% 29.95 in 10.0 mi SW 6.9 mph - N/A   Scattered Clouds
6:35 PM 78.8 °F - 62.6 °F 57% 29.94 in 10.0 mi WSW 4.6 mph - N/A   Partly Cloudy
6:55 PM 77.0 °F - 62.6 °F 61% 29.93 in 10.0 mi WSW 4.6 mph - N/A   Clear
7:15 PM 75.2 °F - 62.6 °F 65% 29.93 in 10.0 mi SW 3.5 mph - N/A   Clear
7:35 PM 75.2 °F - 62.6 °F 65% 29.93 in 10.0 mi SW 3.5 mph - N/A   Clear
7:55 PM 73.4 °F - 62.6 °F 69% 29.93 in 10.0 mi SSW 3.5 mph - N/A   Scattered Clouds
8:15 PM 73.4 °F - 62.6 °F 69% 29.93 in 10.0 mi SW 4.6 mph - N/A   Mostly Cloudy
8:35 PM 73.4 °F - 62.6 °F 69% 29.94 in 10.0 mi Calm Calm - N/A   Scattered Clouds
8:55 PM 71.6 °F - 60.8 °F 69% 29.97 in 10.0 mi WNW 15.0 mph 21.9 mph N/A   Mostly Cloudy
9:15 PM 69.8 °F - 59.0 °F 68% 29.97 in 10.0 mi WNW 10.4 mph - N/A Thunderstorm Overcast
9:35 PM 66.2 °F - 59.0 °F 78% 29.97 in 9.0 mi West 5.8 mph - N/A   Overcast
9:55 PM 66.2 °F - 60.8 °F 83% 29.97 in 4.0 mi West 5.8 mph - N/A   Overcast
10:15 PM 66.2 °F - 60.8 °F 83% 29.97 in 5.0 mi WNW 6.9 mph - N/A   Mostly Cloudy
10:35 PM 66.2 °F - 60.8 °F 83% 29.97 in 4.0 mi WNW 6.9 mph - N/A   Partly Cloudy
10:55 PM 66.2 °F - 62.6 °F 88% 29.97 in 5.0 mi West 5.8 mph - N/A   Scattered Clouds
11:15 PM 66.2 °F - 60.8 °F 83% 29.96 in 3.0 mi West 5.8 mph - N/A   Partly Cloudy
11:35 PM 66.2 °F - 60.8 °F 83% 29.97 in 3.0 mi West 6.9 mph - N/A   Partly Cloudy
11:55 PM 66.2 °F - 60.8 °F 83% 29.97 in 3.0 mi WNW 9.2 mph - N/A   Mostly Cloudy